Flag for Germany Weather past 2 weeks in Minden, North Rhine-Westphalia, Germany

Now
39 °F

Passing clouds.


Feels Like: 34 °F
Forecast: 40 / 58 °F
Wind: 7 mph from Southwest

Location: Bueckeburg

Current Time: Mar 7, 2015 at 3:02:39 AM

Latest Report: Mar 7, 2015 at 2:20 AM


Visibility: N/A

Pressure: 30.48 "Hg

Humidity: 75%

Dew point: 32 °F

Location of MindenLocation

Historic Weather in Minden — Graph

°F

Minden temperature yesterday

Maximum temperature yesterday: 46 °F (at 2:20 PM)
Minimum temperature yesterday: 41 °F (at 12:20 AM)
Average temperature yesterday: 43 °F

Past Weeks' High & Low Weather Summary

 TemperatureHumidityPressure
High50 °F (Mar 1, 1:20 PM)100% (Feb 28, 5:20 AM)30.60 "Hg (Feb 28, 5:20 AM)
Low30 °F (Feb 28, 4:20 AM)46% (Feb 28, 3:20 PM)29.30 "Hg (Feb 21, 6:20 AM)
Average40 °F78%29.89 "Hg
* Reported Feb 20 1:20 AM — Mar 7 1:20 AM, Minden, Weather by CustomWeather, © 2015

Note: Actual official high and low records may vary slightly from our data, if they occured in-between our weather recording intervals... More about our weather records

Advertising

Minden weather history for previous 24 hours

 ConditionsComfort  
Time TempWeatherWind HumidityBarometerVisibility
1:20 AM
Sat, Mar 7
39 °FPassing clouds.7 mph75%30.51 "HgN/A
12:20 AM43 °FPassing clouds.6 mph71%30.51 "HgN/A
11:20 PM
Fri, Mar 6
43 °FPassing clouds.6 mph71%30.51 "HgN/A
10:20 PM43 °FOvercast.6 mph71%30.51 "HgN/A
9:20 PM45 °FOvercast.8 mph71%30.51 "HgN/A
8:20 PM43 °FPassing clouds.5 mph76%30.54 "HgN/A
7:20 PM45 °FPassing clouds.7 mph71%30.54 "HgN/A
4:20 PM46 °FPartly sunny.10 mph66%30.54 "HgN/A
3:20 PM46 °FPartly sunny.8 mph66%30.51 "HgN/A
2:20 PM46 °FPartly sunny.12 mph66%30.54 "HgN/A
1:20 PM45 °FPartly sunny.9 mph71%30.54 "HgN/A
12:20 PM45 °FPartly sunny.10 mph71%30.57 "HgN/A
11:20 AM43 °FPartly sunny.8 mph71%30.57 "HgN/A
10:20 AM41 °FOvercast.8 mph76%30.57 "HgN/A
9:20 AM41 °FPartly sunny.9 mph76%30.57 "HgN/A
8:20 AM41 °FPartly sunny.10 mph76%30.54 "HgN/A
7:20 AM41 °FBroken clouds.6 mph76%30.57 "HgN/A
6:20 AM41 °FPassing clouds.7 mph76%30.57 "HgN/A
5:20 AM41 °FPassing clouds.6 mph76%30.57 "HgN/A
4:20 AM41 °FPassing clouds.7 mph76%30.57 "HgN/A
3:20 AM41 °FPassing clouds.7 mph76%30.57 "HgN/A
Weather by CustomWeather, © 2015

See weather overviewHow to use our weather pages